Regional Weather Roundup
Issued by NWS

Home | Current Version | Previous Version | Graphics & Text | Print | Product List | Glossary On
Versions: 1 2 3 4 5 6 7 8 9 10 11 12 13 14 15 16 17 18 19 20 21 22 23 24 25 26 27 28 29 30 31 32 33 34 35 36 37 38 39 40 41 42 43 44 45 46 47 48 49 50
000
ASUS43 KBIS 141820
RWRND

NORTH DAKOTA REGIONAL WEATHER ROUNDUP
NATIONAL WEATHER SERVICE BISMARCK ND
100 PM CDT SUN SEP 14 2014

NOTE: "FAIR" INDICATES FEW OR NO CLOUDS BELOW 12,000 FEET WITH NO
SIGNIFICANT WEATHER AND/OR OBSTRUCTIONS TO VISIBILITY.


NDZ001>003-009>011-017-141900-
NORTHWEST NORTH DAKOTA

CITY           SKY/WX    TMP DP  RH WIND       PRES   REMARKS
WILLISTON      SUNNY     53  32  44 CALM      30.19S
6HR MIN TEMP:  28; 6HR MAX TEMP:  55;

MINOT          CLOUDY    51  36  56 NW6       30.16F
MINOT AFB      CLOUDY    51  37  56 NW7       30.16S
$$

NDZ018>021-031>035-040>046-141900-
SOUTHWEST NORTH DAKOTA

CITY           SKY/WX    TMP DP  RH WIND       PRES   REMARKS
BISMARCK       PTSUNNY   55  40  56 VRB3      30.19F
6HR MIN TEMP:  35; 6HR MAX TEMP:  55;

DICKINSON      MOSUNNY   52  36  54 E5        30.16F
GARRISON         N/A     54  37  52 N7G22     30.17S
6HR MIN TEMP:  35; 6HR MAX TEMP:  54;

HETTINGER ARPT PTSUNNY   51  32  48 E7        30.18F
$$

NDZ004>008-012>016-024-026-027-054-141900-
NORTHEAST NORTH DAKOTA

CITY           SKY/WX    TMP DP  RH WIND       PRES   REMARKS
GRAND FORKS    CLOUDY    54  43  66 NW9       30.11R
GRND FRKS AFB  CLOUDY    55  45  67 NW10      30.12S
DEVILS LAKE    CLOUDY    52  36  54 NW13      30.12F
$$

NDZ022-023-025-028>030-036>039-047>053-141900-
SOUTHEAST NORTH DAKOTA

CITY           SKY/WX    TMP DP  RH WIND       PRES   REMARKS
FARGO          PTSUNNY   58  44  60 NW13      30.12S
6HR MIN TEMP:  41; 6HR MAX TEMP:  59;

JAMESTOWN      PTSUNNY   51  42  71 W12       30.16R
$$



USA.gov is the U.S. government's official web portal to all federal, state and local government web resources and services.